Regional Weather Roundup
Issued by NWS

Home | Current Version | Previous Version | Graphics & Text | Print | Product List | Glossary On
Versions: 1 2 3 4 5 6 7 8 9 10 11 12 13 14 15 16 17 18 19 20 21 22 23 24 25 26 27 28 29 30 31 32 33 34 35 36 37 38 39 40 41 42 43 44 45 46 47 48 49 50
000
ASUS45 KCYS 291110
RWRWY

WYOMING REGIONAL WEATHER ROUNDUP
NATIONAL WEATHER SERVICE CHEYENNE WY
500 AM MDT MON SEP 29 2014

NOTE:  "FAIR" INDICATES FEW OR NO CLOUDS BELOW 12,000 FEET
WITH NO SIGNIFICANT WEATHER AND/OR OBSTRUCTIONS TO VISIBILITY.

WYZ001-291200-
YELLOWSTONE NATIONAL PARK

CITY           SKY/WX    TMP DP  RH WIND       PRES   REMARKS
LK YELLOWSTONE   N/A     38  36  92 CALM      30.09F
W YELLOWSTONE  NOT AVBL

$$
WYZ002>013-054>058-071-098>099-291200-
NORTHERN WYOMING

CITY           SKY/WX    TMP DP  RH WIND       PRES   REMARKS
JACKSON        CLOUDY    41  41 100 SW3       30.05S
CODY           CLOUDY    45  45 100 NE3       30.04F
GREYBULL       LGT RAIN  48  47  96 N6        30.05F
WORLAND        LGT RAIN  47  46  97 NE9       30.03F
SHERIDAN       CLOUDY    48  46  93 E5        30.05F
BUFFALO        LGT RAIN  46  45  96 SE3       30.06S FOG
GILLETTE       CLOUDY    49  48  97 E3        30.06F
HULETT         CLOUDY    48  45  87 E10       30.08
NEWCASTLE      CLOUDY    50  50 100 W5        30.07

$$
WYZ014>020-022>026-101>103-291200-
CENTRAL WYOMING

CITY           SKY/WX    TMP DP  RH WIND       PRES   REMARKS
BIG PINEY      CLOUDY    44  40  85 CALM      30.06F
PINEDALE       CLOUDY    43  41  93 SE9       30.07S
DUBOIS         FOG       41  39  93 SE7       30.06F VSB 3/4
LANDER         CLOUDY    47  46  97 NE6       30.05S
RIVERTON       FOG       46  45  96 CALM      30.06F VSB 1
CASPER         CLOUDY    46  44  93 NW6       30.07F
DOUGLAS        CLOUDY    49  48  97 SE6       30.06F

$$
WYZ021-027>030-104>119-291200-
SOUTHERN WYOMING

CITY           SKY/WX    TMP DP  RH WIND       PRES   REMARKS
EVANSTON       MOCLDY    40  39  97 SW6       30.06S
KEMMERER       CLOUDY    37  37 100 CALM      30.08R
FORT BRIDGER     N/A     42  42 100 W3        30.09F
ROCK SPRINGS   CLOUDY    43  40  89 S9        30.07S
DIXON          FAIR      43  40  91 NE7       30.11F
RAWLINS        PTCLDY    38  37  97 E5        30.11S WCI  34
SARATOGA         N/A     37  37 100 NW5       30.12F WCI  34
LARAMIE        CLOUDY    46  44  93 SE7       30.14R
CHEYENNE       CLOUDY    49  46  90 N7        30.05F
TORRINGTON     RAIN      50  49  96 N21       30.02F
PINE BLUFFS    CLOUDY    50  48  93 N5        30.06R

$$


USA.gov is the U.S. government's official web portal to all federal, state and local government web resources and services.